owner,sensor,date,latitude,longitude,vertical_datum,wind_speed,wind_to_direction,wind_speed_of_gust,qcFlag 
COMPS,ioos:station:USF.COMPS:ARP:1,2014-11-01T00:00:00Z,28.4330,-82.6670,10.0,5.18,314.21,7.54,'1111122,1111122,1111122' 
COMPS,ioos:station:USF.COMPS:ARP:1,2014-11-01T00:06:00Z,28.4330,-82.6670,10.0,3.34,307.56,5.58,'1111122,1111122,1111122' 
COMPS,ioos:station:USF.COMPS:ARP:1,2014-11-01T00:12:00Z,28.4330,-82.6670,10.0,2.66,323.12,5.09,'1111122,1111122,1111122' 
COMPS,ioos:station:USF.COMPS:ARP:1,2014-11-01T00:18:00Z,28.4330,-82.6670,10.0,4.29,308.41,6.66,'1111122,1111122,1111122' 
COMPS,ioos:station:USF.COMPS:ARP:1,2014-11-01T00:24:00Z,28.4330,-82.6670,10.0,4.57,312.47,8.23,'1111122,1111122,1111122' 
COMPS,ioos:station:USF.COMPS:ARP:1,2014-11-01T00:30:00Z,28.4330,-82.6670,10.0,3.66,318.3,6.07,'1111122,1111122,1111122' 
COMPS,ioos:station:USF.COMPS:ARP:1,2014-11-01T00:36:00Z,28.4330,-82.6670,10.0,3.62,310.89,6.07,'1111122,1111122,1111122' 
COMPS,ioos:station:USF.COMPS:ARP:1,2014-11-01T00:42:00Z,28.4330,-82.6670,10.0,4.41,311.69,7.74,'1111122,1111122,1111122' 
COMPS,ioos:station:USF.COMPS:ARP:1,2014-11-01T00:48:00Z,28.4330,-82.6670,10.0,3.11,322.54,5.68,'1111122,1111122,1111122' 
COMPS,ioos:station:USF.COMPS:ARP:1,2014-11-01T00:54:00Z,28.4330,-82.6670,10.0,3.27,317.37,5.48,'1111122,1111122,1111122' 
COMPS,ioos:station:USF.COMPS:ARP:1,2014-11-01T01:00:00Z,28.4330,-82.6670,10.0,3.17,314.05,5.68,'1111122,1111122,1111122' 
COMPS,ioos:station:USF.COMPS:ARP:1,2014-11-01T01:06:00Z,28.4330,-82.6670,10.0,3.52,315.9,6.27,'1111122,1111122,1111122' 
COMPS,ioos:station:USF.COMPS:ARP:1,2014-11-01T01:12:00Z,28.4330,-82.6670,10.0,3.69,314.23,5.97,'1111122,1111122,1111122' 
COMPS,ioos:station:USF.COMPS:ARP:1,2014-11-01T01:18:00Z,28.4330,-82.6670,10.0,2.99,323.43,5.78,'1111122,1111122,1111122' 
COMPS,ioos:station:USF.COMPS:ARP:1,2014-11-01T01:24:00Z,28.4330,-82.6670,10.0,3.74,314.71,6.85,'1111122,1111122,1111122' 
COMPS,ioos:station:USF.COMPS:ARP:1,2014-11-01T01:30:00Z,28.4330,-82.6670,10.0,3.31,305.96,6.07,'1111122,1111122,1111122' 
COMPS,ioos:station:USF.COMPS:ARP:1,2014-11-01T01:36:00Z,28.4330,-82.6670,10.0,3.82,315.25,6.56,'1111122,1111122,1111122' 
COMPS,ioos:station:USF.COMPS:ARP:1,2014-11-01T01:42:00Z,28.4330,-82.6670,10.0,3.23,321.26,6.76,'1111122,1111122,1111122' 
COMPS,ioos:station:USF.COMPS:ARP:1,2014-11-01T01:48:00Z,28.4330,-82.6670,10.0,4.2,315.89,8.23,'1111122,1111122,1111122' 
COMPS,ioos:station:USF.COMPS:ARP:1,2014-11-01T01:54:00Z,28.4330,-82.6670,10.0,3.8,317.56,7.93,'1111122,1111122,1111122' 
COMPS,ioos:station:USF.COMPS:ARP:1,2014-11-01T02:00:00Z,28.4330,-82.6670,10.0,4.12,316.76,6.95,'1111122,1111122,1111122' 
COMPS,ioos:station:USF.COMPS:ARP:1,2014-11-01T02:06:00Z,28.4330,-82.6670,10.0,3.09,318.6,6.07,'1111122,1111122,1111122' 
COMPS,ioos:station:USF.COMPS:ARP:1,2014-11-01T02:12:00Z,28.4330,-82.6670,10.0,4.2,321.86,8.23,'1111122,1111122,1111122' 
COMPS,ioos:station:USF.COMPS:ARP:1,2014-11-01T02:18:00Z,28.4330,-82.6670,10.0,3.49,314.71,7.15,'1111122,1111122,1111122' 
COMPS,ioos:station:USF.COMPS:ARP:1,2014-11-01T02:24:00Z,28.4330,-82.6670,10.0,4.45,312.79,7.44,'1111122,1111122,1111122' 
COMPS,ioos:station:USF.COMPS:ARP:1,2014-11-01T02:30:00Z,28.4330,-82.6670,10.0,4.03,312.78,7.54,'1111122,1111122,1111122' 
COMPS,ioos:station:USF.COMPS:ARP:1,2014-11-01T02:36:00Z,28.4330,-82.6670,10.0,2.75,320.31,4.9,'1111122,1111122,1111122' 
COMPS,ioos:station:USF.COMPS:ARP:1,2014-11-01T02:42:00Z,28.4330,-82.6670,10.0,4.04,308.84,6.17,'1111122,1111122,1111122' 
COMPS,ioos:station:USF.COMPS:ARP:1,2014-11-01T02:48:00Z,28.4330,-82.6670,10.0,5.08,311.38,7.54,'1111122,1111122,1111122' 
COMPS,ioos:station:USF.COMPS:ARP:1,2014-11-01T02:54:00Z,28.4330,-82.6670,10.0,3.58,317.11,5.19,'1111122,1111122,1111122' 
COMPS,ioos:station:USF.COMPS:ARP:1,2014-11-01T03:00:00Z,28.4330,-82.6670,10.0,3.23,317.31,6.07,'1111122,1111122,1111122' 
COMPS,ioos:station:USF.COMPS:ARP:1,2014-11-01T03:06:00Z,28.4330,-82.6670,10.0,3.19,317.47,5.78,'1111122,1111122,1111122' 
COMPS,ioos:station:USF.COMPS:ARP:1,2014-11-01T03:12:00Z,28.4330,-82.6670,10.0,5.19,312.36,6.95,'1111122,1111122,1111122' 
COMPS,ioos:station:USF.COMPS:ARP:1,2014-11-01T03:18:00Z,28.4330,-82.6670,10.0,2.56,318.92,6.85,'1111122,1111122,1111122' 
COMPS,ioos:station:USF.COMPS:ARP:1,2014-11-01T03:24:00Z,28.4330,-82.6670,10.0,2.49,312.82,5.78,'1111122,1111122,1111122' 
COMPS,ioos:station:USF.COMPS:ARP:1,2014-11-01T03:30:00Z,28.4330,-82.6670,10.0,2.97,315.72,5.19,'1111122,1111122,1111122' 
COMPS,ioos:station:USF.COMPS:ARP:1,2014-11-01T03:36:00Z,28.4330,-82.6670,10.0,5.46,307.73,7.74,'1111122,1111122,1111122' 
COMPS,ioos:station:USF.COMPS:ARP:1,2014-11-01T03:42:00Z,28.4330,-82.6670,10.0,3.07,312.08,4.9,'1111122,1111122,1111122' 
COMPS,ioos:station:USF.COMPS:ARP:1,2014-11-01T03:48:00Z,28.4330,-82.6670,10.0,2.75,317.72,4.7,'1111122,1111122,1111122' 
COMPS,ioos:station:USF.COMPS:ARP:1,2014-11-01T03:54:00Z,28.4330,-82.6670,10.0,3.02,312.89,4.99,'1111122,1111122,1111122' 
COMPS,ioos:station:USF.COMPS:ARP:1,2014-11-01T04:00:00Z,28.4330,-82.6670,10.0,2.28,314.64,3.62,'1111122,1111122,1111122' 
COMPS,ioos:station:USF.COMPS:ARP:1,2014-11-01T04:06:00Z,28.4330,-82.6670,10.0,2.51,314.14,4.11,'1111122,1111122,1111122' 
COMPS,ioos:station:USF.COMPS:ARP:1,2014-11-01T04:12:00Z,28.4330,-82.6670,10.0,4.68,309.67,8.23,'1111122,1111122,1111122' 
COMPS,ioos:station:USF.COMPS:ARP:1,2014-11-01T04:18:00Z,28.4330,-82.6670,10.0,3.63,317.81,7.93,'1111122,1111122,1111122' 
COMPS,ioos:station:USF.COMPS:ARP:1,2014-11-01T04:24:00Z,28.4330,-82.6670,10.0,3.0,316.6,5.87,'1111122,1111122,1111122' 
COMPS,ioos:station:USF.COMPS:ARP:1,2014-11-01T04:30:00Z,28.4330,-82.6670,10.0,2.94,325.31,5.39,'1111122,1111122,1111122' 
COMPS,ioos:station:USF.COMPS:ARP:1,2014-11-01T04:36:00Z,28.4330,-82.6670,10.0,2.56,315.59,3.91,'1111122,1111122,1111122' 
COMPS,ioos:station:USF.COMPS:ARP:1,2014-11-01T04:42:00Z,28.4330,-82.6670,10.0,4.4,311.18,6.56,'1111122,1111122,1111122' 
COMPS,ioos:station:USF.COMPS:ARP:1,2014-11-01T04:48:00Z,28.4330,-82.6670,10.0,4.26,311.68,7.25,'1111122,1111122,1111122' 
COMPS,ioos:station:USF.COMPS:ARP:1,2014-11-01T04:54:00Z,28.4330,-82.6670,10.0,3.76,308.78,5.58,'1111122,1111122,1111122' 
COMPS,ioos:station:USF.COMPS:ARP:1,2014-11-01T05:00:00Z,28.4330,-82.6670,10.0,2.48,319.04,4.11,'1111122,1111122,1111122' 
COMPS,ioos:station:USF.COMPS:ARP:1,2014-11-01T05:06:00Z,28.4330,-82.6670,10.0,2.86,312.84,4.5,'1111122,1111122,1111122' 
COMPS,ioos:station:USF.COMPS:ARP:1,2014-11-01T05:12:00Z,28.4330,-82.6670,10.0,1.82,322.47,3.33,'1111122,1111122,1111122' 
COMPS,ioos:station:USF.COMPS:ARP:1,2014-11-01T05:18:00Z,28.4330,-82.6670,10.0,3.1,316.29,4.9,'1111122,1111122,1111122' 
COMPS,ioos:station:USF.COMPS:ARP:1,2014-11-01T05:24:00Z,28.4330,-82.6670,10.0,3.66,309.71,5.87,'1111122,1111122,1111122' 
COMPS,ioos:station:USF.COMPS:ARP:1,2014-11-01T05:30:00Z,28.4330,-82.6670,10.0,3.76,312.98,6.46,'1111122,1111122,1111122' 
COMPS,ioos:station:USF.COMPS:ARP:1,2014-11-01T05:36:00Z,28.4330,-82.6670,10.0,1.95,317.44,3.82,'1111122,1111122,1111122' 
COMPS,ioos:station:USF.COMPS:ARP:1,2014-11-01T05:42:00Z,28.4330,-82.6670,10.0,2.55,314.52,5.39,'1111122,1111122,1111122' 
COMPS,ioos:station:USF.COMPS:ARP:1,2014-11-01T05:48:00Z,28.4330,-82.6670,10.0,4.22,307.62,5.97,'1111122,1111122,1111122' 
COMPS,ioos:station:USF.COMPS:ARP:1,2014-11-01T05:54:00Z,28.4330,-82.6670,10.0,5.62,309.14,6.95,'1111122,1111122,1111122' 
COMPS,ioos:station:USF.COMPS:ARP:1,2014-11-01T06:00:00Z,28.4330,-82.6670,10.0,3.98,312.43,6.56,'1111122,1111122,1111122' 
COMPS,ioos:station:USF.COMPS:ARP:1,2014-11-01T06:06:00Z,28.4330,-82.6670,10.0,3.97,310.96,6.17,'1111122,1111122,1111122' 
COMPS,ioos:station:USF.COMPS:ARP:1,2014-11-01T06:12:00Z,28.4330,-82.6670,10.0,4.82,308.26,7.35,'1111122,1111122,1111122' 
COMPS,ioos:station:USF.COMPS:ARP:1,2014-11-01T06:18:00Z,28.4330,-82.6670,10.0,6.56,307.36,8.23,'1111122,1111122,1111122' 
COMPS,ioos:station:USF.COMPS:ARP:1,2014-11-01T06:24:00Z,28.4330,-82.6670,10.0,7.1,304.61,8.82,'1111122,1111122,1111122' 
COMPS,ioos:station:USF.COMPS:ARP:1,2014-11-01T06:30:00Z,28.4330,-82.6670,10.0,6.38,307.98,9.01,'1111122,1111122,1111122' 
COMPS,ioos:station:USF.COMPS:ARP:1,2014-11-01T06:36:00Z,28.4330,-82.6670,10.0,6.97,309.43,8.13,'1111122,1111122,1111122' 
COMPS,ioos:station:USF.COMPS:ARP:1,2014-11-01T06:42:00Z,28.4330,-82.6670,10.0,6.83,309.4,8.13,'1111122,1111122,1111122' 
COMPS,ioos:station:USF.COMPS:ARP:1,2014-11-01T06:48:00Z,28.4330,-82.6670,10.0,7.18,304.78,9.01,'1111122,1111122,1111122' 
COMPS,ioos:station:USF.COMPS:ARP:1,2014-11-01T06:54:00Z,28.4330,-82.6670,10.0,6.57,306.1,8.13,'1111122,1111122,1111122' 
COMPS,ioos:station:USF.COMPS:ARP:1,2014-11-01T07:00:00Z,28.4330,-82.6670,10.0,6.55,308.45,8.42,'1111122,1111122,1111122' 
COMPS,ioos:station:USF.COMPS:ARP:1,2014-11-01T07:06:00Z,28.4330,-82.6670,10.0,6.98,307.04,9.99,'1111122,1111122,1111122' 
COMPS,ioos:station:USF.COMPS:ARP:1,2014-11-01T07:12:00Z,28.4330,-82.6670,10.0,8.78,305.76,11.27,'1111122,1111122,1111122' 
COMPS,ioos:station:USF.COMPS:ARP:1,2014-11-01T07:18:00Z,28.4330,-82.6670,10.0,9.21,306.03,11.27,'1111122,1111122,1111122' 
COMPS,ioos:station:USF.COMPS:ARP:1,2014-11-01T07:24:00Z,28.4330,-82.6670,10.0,4.45,323.76,12.05,'1111122,1111122,1111122' 
COMPS,ioos:station:USF.COMPS:ARP:1,2014-11-01T07:30:00Z,28.4330,-82.6670,10.0,2.17,343.77,4.8,'1111122,1111122,1111122' 
COMPS,ioos:station:USF.COMPS:ARP:1,2014-11-01T07:36:00Z,28.4330,-82.6670,10.0,2.54,336.47,5.29,'1111122,1111122,1111122' 
COMPS,ioos:station:USF.COMPS:ARP:1,2014-11-01T07:42:00Z,28.4330,-82.6670,10.0,3.23,330.68,9.21,'1111122,1111122,1111122' 
COMPS,ioos:station:USF.COMPS:ARP:1,2014-11-01T07:48:00Z,28.4330,-82.6670,10.0,2.88,319.51,6.07,'1111122,1111122,1111122' 
COMPS,ioos:station:USF.COMPS:ARP:1,2014-11-01T07:54:00Z,28.4330,-82.6670,10.0,3.38,326.25,6.37,'1111122,1111122,1111122' 
COMPS,ioos:station:USF.COMPS:ARP:1,2014-11-01T08:00:00Z,28.4330,-82.6670,10.0,2.29,318.22,4.41,'1111122,1111122,1111122' 
COMPS,ioos:station:USF.COMPS:ARP:1,2014-11-01T08:06:00Z,28.4330,-82.6670,10.0,1.57,336.34,3.72,'1111122,1111122,1111122' 
COMPS,ioos:station:USF.COMPS:ARP:1,2014-11-01T08:12:00Z,28.4330,-82.6670,10.0,1.46,338.08,4.11,'1111122,1111122,1111122' 
COMPS,ioos:station:USF.COMPS:ARP:1,2014-11-01T08:18:00Z,28.4330,-82.6670,10.0,2.45,335.89,6.95,'1111122,1111122,1111122' 
COMPS,ioos:station:USF.COMPS:ARP:1,2014-11-01T08:24:00Z,28.4330,-82.6670,10.0,2.99,343.83,6.76,'1111122,1111122,1111122' 
COMPS,ioos:station:USF.COMPS:ARP:1,2014-11-01T08:30:00Z,28.4330,-82.6670,10.0,2.68,348.98,6.95,'1111122,1111122,1111122' 
COMPS,ioos:station:USF.COMPS:ARP:1,2014-11-01T08:36:00Z,28.4330,-82.6670,10.0,2.19,34.93,5.87,'1111122,1111122,1111122' 
COMPS,ioos:station:USF.COMPS:ARP:1,2014-11-01T08:42:00Z,28.4330,-82.6670,10.0,1.58,28.21,6.85,'1111122,1111122,1111122' 
COMPS,ioos:station:USF.COMPS:ARP:1,2014-11-01T08:48:00Z,28.4330,-82.6670,10.0,1.46,24.11,4.6,'1111122,1111122,1111122' 
COMPS,ioos:station:USF.COMPS:ARP:1,2014-11-01T08:54:00Z,28.4330,-82.6670,10.0,1.77,358.44,5.78,'1111122,1111122,1111122' 
COMPS,ioos:station:USF.COMPS:ARP:1,2014-11-01T09:00:00Z,28.4330,-82.6670,10.0,2.32,355.69,5.29,'1111122,1111122,1111122' 
COMPS,ioos:station:USF.COMPS:ARP:1,2014-11-01T09:06:00Z,28.4330,-82.6670,10.0,1.89,9.6,4.5,'1111122,1111122,1111122' 
COMPS,ioos:station:USF.COMPS:ARP:1,2014-11-01T09:12:00Z,28.4330,-82.6670,10.0,2.02,8.81,7.83,'1111122,1111122,1111122' 
COMPS,ioos:station:USF.COMPS:ARP:1,2014-11-01T09:18:00Z,28.4330,-82.6670,10.0,1.89,356.47,6.27,'1111122,1111122,1111122' 
COMPS,ioos:station:USF.COMPS:ARP:1,2014-11-01T09:24:00Z,28.4330,-82.6670,10.0,1.99,28.93,5.48,'1111122,1111122,1111122' 
COMPS,ioos:station:USF.COMPS:ARP:1,2014-11-01T09:30:00Z,28.4330,-82.6670,10.0,1.66,22.89,4.21,'1111122,1111122,1111122' 
COMPS,ioos:station:USF.COMPS:ARP:1,2014-11-01T09:36:00Z,28.4330,-82.6670,10.0,2.85,6.6,6.56,'1111122,1111122,1111122' 
COMPS,ioos:station:USF.COMPS:ARP:1,2014-11-01T09:42:00Z,28.4330,-82.6670,10.0,3.66,339.72,8.62,'1111122,1111122,1111122' 
COMPS,ioos:station:USF.COMPS:ARP:1,2014-11-01T09:48:00Z,28.4330,-82.6670,10.0,2.99,346.7,6.66,'1111122,1111122,1111122' 
COMPS,ioos:station:USF.COMPS:ARP:1,2014-11-01T09:54:00Z,28.4330,-82.6670,10.0,2.48,341.84,7.54,'1111122,1111122,1111122' 
COMPS,ioos:station:USF.COMPS:ARP:1,2014-11-01T10:00:00Z,28.4330,-82.6670,10.0,2.87,346.37,7.74,'1111122,1111122,1111122' 
COMPS,ioos:station:USF.COMPS:ARP:1,2014-11-01T10:06:00Z,28.4330,-82.6670,10.0,2.7,356.12,6.37,'1111122,1111122,1111122' 
COMPS,ioos:station:USF.COMPS:ARP:1,2014-11-01T10:12:00Z,28.4330,-82.6670,10.0,2.94,354.58,6.95,'1111122,1111122,1111122' 
COMPS,ioos:station:USF.COMPS:ARP:1,2014-11-01T10:18:00Z,28.4330,-82.6670,10.0,2.58,347.22,6.07,'1111122,1111122,1111122' 
COMPS,ioos:station:USF.COMPS:ARP:1,2014-11-01T10:24:00Z,28.4330,-82.6670,10.0,3.66,350.51,7.93,'1111122,1111122,1111122' 
COMPS,ioos:station:USF.COMPS:ARP:1,2014-11-01T10:30:00Z,28.4330,-82.6670,10.0,3.52,317.23,6.95,'1111122,1111122,1111122' 
COMPS,ioos:station:USF.COMPS:ARP:1,2014-11-01T10:36:00Z,28.4330,-82.6670,10.0,3.07,337.13,5.87,'1111122,1111122,1111122' 
COMPS,ioos:station:USF.COMPS:ARP:1,2014-11-01T10:42:00Z,28.4330,-82.6670,10.0,3.16,335.92,8.03,'1111122,1111122,1111122' 
COMPS,ioos:station:USF.COMPS:ARP:1,2014-11-01T10:48:00Z,28.4330,-82.6670,10.0,3.32,320.29,6.66,'1111122,1111122,1111122' 
COMPS,ioos:station:USF.COMPS:ARP:1,2014-11-01T10:54:00Z,28.4330,-82.6670,10.0,3.81,333.22,7.74,'1111122,1111122,1111122' 
COMPS,ioos:station:USF.COMPS:ARP:1,2014-11-01T11:00:00Z,28.4330,-82.6670,10.0,3.79,336.86,8.03,'1111122,1111122,1111122' 
COMPS,ioos:station:USF.COMPS:ARP:1,2014-11-01T11:06:00Z,28.4330,-82.6670,10.0,4.25,349.09,9.3,'1111122,1111122,1111122' 
COMPS,ioos:station:USF.COMPS:ARP:1,2014-11-01T11:12:00Z,28.4330,-82.6670,10.0,4.72,325.31,9.01,'1111122,1111122,1111122' 
COMPS,ioos:station:USF.COMPS:ARP:1,2014-11-01T11:18:00Z,28.4330,-82.6670,10.0,4.74,321.95,9.5,'1111122,1111122,1111122' 
COMPS,ioos:station:USF.COMPS:ARP:1,2014-11-01T11:24:00Z,28.4330,-82.6670,10.0,4.71,321.87,9.21,'1111122,1111122,1111122' 
COMPS,ioos:station:USF.COMPS:ARP:1,2014-11-01T11:30:00Z,28.4330,-82.6670,10.0,3.93,324.94,7.35,'1111122,1111122,1111122' 
COMPS,ioos:station:USF.COMPS:ARP:1,2014-11-01T11:36:00Z,28.4330,-82.6670,10.0,4.29,328.05,10.19,'1111122,1111122,1111122' 
COMPS,ioos:station:USF.COMPS:ARP:1,2014-11-01T11:42:00Z,28.4330,-82.6670,10.0,3.17,343.64,7.35,'1111122,1111122,1111122' 
COMPS,ioos:station:USF.COMPS:ARP:1,2014-11-01T11:48:00Z,28.4330,-82.6670,10.0,3.99,344.24,8.23,'1111122,1111122,1111122' 
COMPS,ioos:station:USF.COMPS:ARP:1,2014-11-01T11:54:00Z,28.4330,-82.6670,10.0,3.95,345.44,7.83,'1111122,1111122,1111122' 
COMPS,ioos:station:USF.COMPS:ARP:1,2014-11-01T12:00:00Z,28.4330,-82.6670,10.0,4.3,342.01,8.03,'1111122,1111122,1111122' 
COMPS,ioos:station:USF.COMPS:ARP:1,2014-11-01T12:06:00Z,28.4330,-82.6670,10.0,3.98,334.55,9.11,'1111122,1111122,1111122' 
COMPS,ioos:station:USF.COMPS:ARP:1,2014-11-01T12:12:00Z,28.4330,-82.6670,10.0,4.61,329.74,9.01,'1111122,1111122,1111122' 
COMPS,ioos:station:USF.COMPS:ARP:1,2014-11-01T12:18:00Z,28.4330,-82.6670,10.0,4.17,331.32,8.62,'1111122,1111122,1111122' 
COMPS,ioos:station:USF.COMPS:ARP:1,2014-11-01T12:24:00Z,28.4330,-82.6670,10.0,4.04,323.23,8.62,'1111122,1111122,1111122' 
COMPS,ioos:station:USF.COMPS:ARP:1,2014-11-01T12:30:00Z,28.4330,-82.6670,10.0,4.66,339.64,9.11,'1111122,1111122,1111122' 
COMPS,ioos:station:USF.COMPS:ARP:1,2014-11-01T12:36:00Z,28.4330,-82.6670,10.0,5.03,329.5,10.19,'1111122,1111122,1111122' 
COMPS,ioos:station:USF.COMPS:ARP:1,2014-11-01T12:42:00Z,28.4330,-82.6670,10.0,5.07,328.78,10.87,'1111122,1111122,1111122' 
COMPS,ioos:station:USF.COMPS:ARP:1,2014-11-01T12:48:00Z,28.4330,-82.6670,10.0,4.2,334.38,10.68,'1111122,1111122,1111122' 
COMPS,ioos:station:USF.COMPS:ARP:1,2014-11-01T12:54:00Z,28.4330,-82.6670,10.0,3.7,338.46,9.11,'1111122,1111122,1111122' 
COMPS,ioos:station:USF.COMPS:ARP:1,2014-11-01T13:00:00Z,28.4330,-82.6670,10.0,3.12,331.9,7.74,'1111122,1111122,1111122' 
COMPS,ioos:station:USF.COMPS:ARP:1,2014-11-01T13:06:00Z,28.4330,-82.6670,10.0,3.41,343.23,7.35,'1111122,1111122,1111122' 
COMPS,ioos:station:USF.COMPS:ARP:1,2014-11-01T13:12:00Z,28.4330,-82.6670,10.0,3.18,331.87,6.37,'1111122,1111122,1111122' 
COMPS,ioos:station:USF.COMPS:ARP:1,2014-11-01T13:18:00Z,28.4330,-82.6670,10.0,3.91,332.5,9.11,'1111122,1111122,1111122' 
COMPS,ioos:station:USF.COMPS:ARP:1,2014-11-01T13:24:00Z,28.4330,-82.6670,10.0,3.15,339.82,7.44,'1111122,1111122,1111122' 
COMPS,ioos:station:USF.COMPS:ARP:1,2014-11-01T13:30:00Z,28.4330,-82.6670,10.0,3.76,335.35,9.5,'1111122,1111122,1111122' 
COMPS,ioos:station:USF.COMPS:ARP:1,2014-11-01T13:36:00Z,28.4330,-82.6670,10.0,4.4,338.0,10.19,'1111122,1111122,1111122' 
COMPS,ioos:station:USF.COMPS:ARP:1,2014-11-01T13:42:00Z,28.4330,-82.6670,10.0,3.55,339.99,8.33,'1111122,1111122,1111122' 
COMPS,ioos:station:USF.COMPS:ARP:1,2014-11-01T13:48:00Z,28.4330,-82.6670,10.0,3.22,339.73,7.74,'1111122,1111122,1111122' 
COMPS,ioos:station:USF.COMPS:ARP:1,2014-11-01T13:54:00Z,28.4330,-82.6670,10.0,3.47,322.5,7.05,'1111122,1111122,1111122' 
COMPS,ioos:station:USF.COMPS:ARP:1,2014-11-01T14:00:00Z,28.4330,-82.6670,10.0,4.02,348.29,7.44,'1111122,1111122,1111122' 
COMPS,ioos:station:USF.COMPS:ARP:1,2014-11-01T14:06:00Z,28.4330,-82.6670,10.0,3.96,331.94,9.5,'1111122,1111122,1111122' 
COMPS,ioos:station:USF.COMPS:ARP:1,2014-11-01T14:12:00Z,28.4330,-82.6670,10.0,3.5,330.02,6.46,'1111122,1111122,1111122' 
COMPS,ioos:station:USF.COMPS:ARP:1,2014-11-01T14:18:00Z,28.4330,-82.6670,10.0,3.74,345.29,8.52,'1111122,1111122,1111122' 
COMPS,ioos:station:USF.COMPS:ARP:1,2014-11-01T14:24:00Z,28.4330,-82.6670,10.0,4.25,326.59,8.13,'1111122,1111122,1111122' 
COMPS,ioos:station:USF.COMPS:ARP:1,2014-11-01T14:30:00Z,28.4330,-82.6670,10.0,4.32,317.02,8.42,'1111122,1111122,1111122' 
COMPS,ioos:station:USF.COMPS:ARP:1,2014-11-01T14:36:00Z,28.4330,-82.6670,10.0,3.62,324.24,8.23,'1111122,1111122,1111122' 
COMPS,ioos:station:USF.COMPS:ARP:1,2014-11-01T14:42:00Z,28.4330,-82.6670,10.0,4.37,316.73,7.74,'1111122,1111122,1111122' 
COMPS,ioos:station:USF.COMPS:ARP:1,2014-11-01T14:48:00Z,28.4330,-82.6670,10.0,3.73,336.67,8.13,'1111122,1111122,1111122' 
COMPS,ioos:station:USF.COMPS:ARP:1,2014-11-01T14:54:00Z,28.4330,-82.6670,10.0,3.85,328.22,9.11,'1111122,1111122,1111122' 
COMPS,ioos:station:USF.COMPS:ARP:1,2014-11-01T15:00:00Z,28.4330,-82.6670,10.0,3.15,323.97,8.13,'1111122,1111122,1111122' 
COMPS,ioos:station:USF.COMPS:ARP:1,2014-11-01T15:06:00Z,28.4330,-82.6670,10.0,4.96,317.67,8.33,'1111122,1111122,1111122' 
COMPS,ioos:station:USF.COMPS:ARP:1,2014-11-01T15:12:00Z,28.4330,-82.6670,10.0,4.26,328.43,9.11,'1111122,1111122,1111122' 
COMPS,ioos:station:USF.COMPS:ARP:1,2014-11-01T15:18:00Z,28.4330,-82.6670,10.0,4.08,321.04,8.91,'1111122,1111122,1111122' 
COMPS,ioos:station:USF.COMPS:ARP:1,2014-11-01T15:24:00Z,28.4330,-82.6670,10.0,4.7,321.51,10.97,'1111122,1111122,1111122' 
COMPS,ioos:station:USF.COMPS:ARP:1,2014-11-01T15:30:00Z,28.4330,-82.6670,10.0,4.57,324.61,8.23,'1111122,1111122,1111122' 
COMPS,ioos:station:USF.COMPS:ARP:1,2014-11-01T15:36:00Z,28.4330,-82.6670,10.0,5.37,317.37,11.85,'1111122,1111122,1111122' 
COMPS,ioos:station:USF.COMPS:ARP:1,2014-11-01T15:42:00Z,28.4330,-82.6670,10.0,5.89,314.04,10.48,'1111122,1111122,1111122' 
COMPS,ioos:station:USF.COMPS:ARP:1,2014-11-01T15:48:00Z,28.4330,-82.6670,10.0,6.72,313.99,12.83,'1111122,1111122,1111122' 
COMPS,ioos:station:USF.COMPS:ARP:1,2014-11-01T15:54:00Z,28.4330,-82.6670,10.0,5.98,316.89,9.6,'1111122,1111122,1111122' 
COMPS,ioos:station:USF.COMPS:ARP:1,2014-11-01T16:00:00Z,28.4330,-82.6670,10.0,6.74,307.67,10.58,'1111122,1111122,1111122' 
COMPS,ioos:station:USF.COMPS:ARP:1,2014-11-01T16:06:00Z,28.4330,-82.6670,10.0,5.67,319.99,9.11,'1111122,1111122,1111122' 
COMPS,ioos:station:USF.COMPS:ARP:1,2014-11-01T16:12:00Z,28.4330,-82.6670,10.0,6.17,313.45,10.09,'1111122,1111122,1111122' 
COMPS,ioos:station:USF.COMPS:ARP:1,2014-11-01T16:18:00Z,28.4330,-82.6670,10.0,5.46,318.04,10.97,'1111122,1111122,1111122' 
COMPS,ioos:station:USF.COMPS:ARP:1,2014-11-01T16:24:00Z,28.4330,-82.6670,10.0,6.69,316.01,11.36,'1111122,1111122,1111122' 
COMPS,ioos:station:USF.COMPS:ARP:1,2014-11-01T16:30:00Z,28.4330,-82.6670,10.0,5.44,320.21,9.4,'1111122,1111122,1111122' 
COMPS,ioos:station:USF.COMPS:ARP:1,2014-11-01T16:36:00Z,28.4330,-82.6670,10.0,7.21,312.96,10.58,'1111122,1111122,1111122' 
COMPS,ioos:station:USF.COMPS:ARP:1,2014-11-01T16:42:00Z,28.4330,-82.6670,10.0,5.55,317.44,11.27,'1111122,1111122,1111122' 
COMPS,ioos:station:USF.COMPS:ARP:1,2014-11-01T16:48:00Z,28.4330,-82.6670,10.0,5.37,320.8,8.82,'1111122,1111122,1111122' 
COMPS,ioos:station:USF.COMPS:ARP:1,2014-11-01T16:54:00Z,28.4330,-82.6670,10.0,4.45,323.17,11.66,'1111122,1111122,1111122' 
COMPS,ioos:station:USF.COMPS:ARP:1,2014-11-01T17:00:00Z,28.4330,-82.6670,10.0,5.57,320.56,9.21,'1111122,1111122,1111122' 
COMPS,ioos:station:USF.COMPS:ARP:1,2014-11-01T17:06:00Z,28.4330,-82.6670,10.0,5.85,316.51,10.87,'1111122,1111122,1111122' 
COMPS,ioos:station:USF.COMPS:ARP:1,2014-11-01T17:12:00Z,28.4330,-82.6670,10.0,7.23,316.01,11.56,'1111122,1111122,1111122' 
COMPS,ioos:station:USF.COMPS:ARP:1,2014-11-01T17:18:00Z,28.4330,-82.6670,10.0,5.92,314.94,10.78,'1111122,1111122,1111122' 
COMPS,ioos:station:USF.COMPS:ARP:1,2014-11-01T17:24:00Z,28.4330,-82.6670,10.0,6.63,314.27,10.97,'1111122,1111122,1111122' 
COMPS,ioos:station:USF.COMPS:ARP:1,2014-11-01T17:30:00Z,28.4330,-82.6670,10.0,7.72,316.69,11.36,'1111122,1111122,1111122' 
COMPS,ioos:station:USF.COMPS:ARP:1,2014-11-01T17:36:00Z,28.4330,-82.6670,10.0,7.49,311.62,11.85,'1111122,1111122,1111122' 
COMPS,ioos:station:USF.COMPS:ARP:1,2014-11-01T17:42:00Z,28.4330,-82.6670,10.0,7.31,315.75,11.66,'1111122,1111122,1111122' 
COMPS,ioos:station:USF.COMPS:ARP:1,2014-11-01T17:48:00Z,28.4330,-82.6670,10.0,6.12,315.13,12.05,'1111122,1111122,1111122' 
COMPS,ioos:station:USF.COMPS:ARP:1,2014-11-01T17:54:00Z,28.4330,-82.6670,10.0,7.5,314.36,10.87,'1111122,1111122,1111122' 
COMPS,ioos:station:USF.COMPS:ARP:1,2014-11-01T18:00:00Z,28.4330,-82.6670,10.0,5.73,309.94,9.89,'1111122,1111122,1111122' 
COMPS,ioos:station:USF.COMPS:ARP:1,2014-11-01T18:06:00Z,28.4330,-82.6670,10.0,7.29,307.09,11.85,'1111122,1111122,1111122' 
COMPS,ioos:station:USF.COMPS:ARP:1,2014-11-01T18:12:00Z,28.4330,-82.6670,10.0,5.62,316.22,9.3,'1111122,1111122,1111122' 
COMPS,ioos:station:USF.COMPS:ARP:1,2014-11-01T18:18:00Z,28.4330,-82.6670,10.0,7.03,313.8,10.87,'1111122,1111122,1111122' 
COMPS,ioos:station:USF.COMPS:ARP:1,2014-11-01T18:24:00Z,28.4330,-82.6670,10.0,5.66,315.72,10.09,'1111122,1111122,1111122' 
COMPS,ioos:station:USF.COMPS:ARP:1,2014-11-01T18:30:00Z,28.4330,-82.6670,10.0,7.72,306.27,11.07,'1111122,1111122,1111122' 
COMPS,ioos:station:USF.COMPS:ARP:1,2014-11-01T18:36:00Z,28.4330,-82.6670,10.0,7.0,309.34,10.09,'1111122,1111122,1111122' 
COMPS,ioos:station:USF.COMPS:ARP:1,2014-11-01T18:42:00Z,28.4330,-82.6670,10.0,8.58,312.19,12.44,'1111122,1111122,1111122' 
COMPS,ioos:station:USF.COMPS:ARP:1,2014-11-01T18:48:00Z,28.4330,-82.6670,10.0,7.27,312.71,12.54,'1111122,1111122,1111122' 
COMPS,ioos:station:USF.COMPS:ARP:1,2014-11-01T18:54:00Z,28.4330,-82.6670,10.0,6.94,309.88,10.78,'1111122,1111122,1111122' 
COMPS,ioos:station:USF.COMPS:ARP:1,2014-11-01T19:00:00Z,28.4330,-82.6670,10.0,5.23,320.65,9.5,'1111122,1111122,1111122' 
COMPS,ioos:station:USF.COMPS:ARP:1,2014-11-01T19:06:00Z,28.4330,-82.6670,10.0,7.56,313.45,12.34,'1111122,1111122,1111122' 
COMPS,ioos:station:USF.COMPS:ARP:1,2014-11-01T19:12:00Z,28.4330,-82.6670,10.0,7.4,306.14,10.19,'1111122,1111122,1111122' 
COMPS,ioos:station:USF.COMPS:ARP:1,2014-11-01T19:18:00Z,28.4330,-82.6670,10.0,7.09,311.44,12.34,'1111122,1111122,1111122' 
COMPS,ioos:station:USF.COMPS:ARP:1,2014-11-01T19:24:00Z,28.4330,-82.6670,10.0,7.54,310.06,13.52,'1111122,1111122,1111122' 